This demonstration page uses our WeatherBlox Daily Observations layout. Learn more.

Left ArrowRight Arrow

Hourly Observations for October 21, 2016

Temp ( °F °C ) Dew Point ( °F °C ) Humidity (%) Winds ( mph kmh ) Pressure ( in mb ) Visibility ( mi km ) Precip ( " mm )
12:15 am 00:15 Clear 39 4 34 1 81 81 Calm 30.33 1027 10 16 0.00 0.00
12:35 am 00:35 Clear 39 4 30 -1 70 70 ENE 5 7 30.33 1027 10 16 0.00 0.00
12:55 am 00:55 Clear 37 3 30 -1 75 75 S 6 9 30.36 1028 10 16 0.00 0.00
1:15 am 01:15 Clear 37 3 30 -1 75 75 S 7 11 30.36 1028 10 16 0.00 0.00
1:35 am 01:35 Clear 37 3 30 -1 75 75 S 6 9 30.33 1027 10 16 0.00 0.00
1:55 am 01:55 Clear 37 3 30 -1 75 75 S 7 11 30.33 1027 10 16 0.00 0.00
2:15 am 02:15 Clear 37 3 30 -1 75 75 S 8 13 30.33 1027 10 16 0.00 0.00
2:35 am 02:35 Clear 37 3 30 -1 75 75 S 7 11 30.33 1027 10 16 0.00 0.00
2:55 am 02:55 Clear 37 3 30 -1 75 75 S 8 13 30.33 1027 10 16 0.00 0.00
3:15 am 03:15 Clear 37 3 30 -1 75 75 S 6 9 30.33 1027 10 16 0.00 0.00
3:35 am 03:35 Clear 37 3 32 0 81 81 S 6 9 30.33 1027 10 16 0.00 0.00
3:55 am 03:55 Clear 36 2 30 -1 81 81 S 7 11 30.30 1026 10 16 0.00 0.00
4:15 am 04:15 Clear 36 2 30 -1 81 81 S 7 11 30.30 1026 10 16 0.00 0.00
4:35 am 04:35 Clear 39 4 34 1 81 81 SSW 8 13 30.27 1025 10 16 0.00 0.00
4:55 am 04:55 Clear 39 4 34 1 81 81 SSW 8 13 30.27 1025 10 16 0.00 0.00
5:15 am 05:15 Clear 37 3 34 1 87 87 SSW 7 11 30.30 1026 10 16 0.00 0.00
5:35 am 05:35 Clear 37 3 32 0 81 81 SSW 7 11 30.30 1026 10 16 0.00 0.00
5:55 am 05:55 Clear 37 3 32 0 81 81 SSW 6 9 30.30 1026 10 16 0.00 0.00
6:15 am 06:15 Clear 37 3 32 0 81 81 SSW 7 11 30.30 1026 10 16 0.00 0.00
6:35 am 06:35 Clear 37 3 32 0 81 81 S 7 11 30.30 1026 10 16 0.00 0.00
6:55 am 06:55 Clear 37 3 30 -1 75 75 S 5 7 30.24 1024 10 16 0.00 0.00
7:15 am 07:15 Clear 37 3 32 0 81 81 S 5 7 30.24 1024 10 16 0.00 0.00
7:35 am 07:35 Clear 37 3 32 0 81 81 S 6 9 30.24 1024 10 16 0.00 0.00
7:55 am 07:55 Sunny 37 3 32 0 81 81 SSW 8 13 30.24 1024 10 16 0.00 0.00
8:15 am 08:15 Sunny 37 3 32 0 81 81 S 8 13 30.24 1024 10 16 0.00 0.00
8:35 am 08:35 Sunny 37 3 32 0 81 81 S 8 13 30.24 1024 10 16 0.00 0.00
8:55 am 08:55 Sunny 37 3 34 1 87 87 SSW 10 17 30.24 1024 10 16 0.00 0.00
9:15 am 09:15 Sunny 39 4 34 1 81 81 SSW 9 15 30.24 1024 10 16 0.00 0.00
9:35 am 09:35 Sunny 43 6 36 2 76 76 SSW 9 15 30.24 1024 10 16 0.00 0.00
9:55 am 09:55 Sunny 46 8 37 3 71 71 SSW 14 22 30.18 1022 10 16 0.00 0.00
10:15 am 10:15 Sunny 50 10 37 3 62 62 SSW 16 26 30.15 1021 10 16 0.00 0.00
10:35 am 10:35 Sunny 54 12 37 3 54 54 SSW 21 33 30.15 1021 10 16 0.00 0.00
10:55 am 10:55 Sunny 55 13 39 4 55 55 SSW 22 35 30.09 1019 10 16 0.00 0.00
11:15 am 11:15 Sunny 57 14 37 3 48 48 SSW 23 37 30.09 1019 10 16 0.00 0.00
11:35 am 11:35 Sunny 59 15 37 3 45 45 SSW 21 33 30.09 1019 10 16 0.00 0.00
11:55 am 11:55 Sunny 61 16 37 3 42 42 SSW 24 39 30.06 1018 10 16 0.00 0.00
12:15 pm 12:15 Sunny 63 17 36 2 37 37 S 24 39 30.03 1017 10 16 0.00 0.00
12:35 pm 12:35 Sunny 64 18 36 2 34 34 SSW 26 43 30.00 1016 10 16 0.00 0.00
12:55 pm 12:55 Sunny 64 18 36 2 34 34 SSW 24 39 30.00 1016 10 16 0.00 0.00
1:15 pm 13:15 Sunny 64 18 36 2 34 34 SSW 21 33 30.00 1016 10 16 0.00 0.00
1:35 pm 13:35 Sunny 64 18 37 3 37 37 SSW 22 35 29.97 1015 10 16 0.00 0.00
1:55 pm 13:55 Sunny 66 19 37 3 35 35 SSW 22 35 29.97 1015 10 16 0.00 0.00
2:15 pm 14:15 Sunny 66 19 37 3 35 35 SSW 16 26 29.97 1015 10 16 0.00 0.00
2:35 pm 14:35 Sunny 66 19 37 3 35 35 SSW 18 30 29.94 1014 10 16 0.00 0.00
2:55 pm 14:55 Sunny 68 20 37 3 33 33 SSW 17 28 29.91 1013 10 16 0.00 0.00
3:15 pm 15:15 Sunny 70 21 37 3 31 31 SSW 15 24 29.91 1013 10 16 0.00 0.00
3:35 pm 15:35 Sunny 70 21 37 3 31 31 SW 12 19 29.91 1013 10 16 0.00 0.00
3:55 pm 15:55 Sunny 70 21 36 2 29 29 SW 14 22 29.91 1013 10 16 0.00 0.00
4:15 pm 16:15 Sunny 70 21 34 1 27 27 SW 14 22 29.91 1013 10 16 0.00 0.00
4:35 pm 16:35 Sunny 70 21 34 1 27 27 SW 9 15 29.91 1013 10 16 0.00 0.00
4:55 pm 16:55 Sunny 70 21 34 1 27 27 SW 8 13 29.91 1013 10 16 0.00 0.00
5:15 pm 17:15 Sunny 70 21 32 0 25 25 WSW 8 13 29.91 1013 10 16 0.00 0.00
5:35 pm 17:35 Sunny 70 21 32 0 25 25 W 8 13 29.91 1013 10 16 0.00 0.00
5:55 pm 17:55 Sunny 66 19 30 -1 26 26 W 6 9 29.94 1014 10 16 0.00 0.00
6:15 pm 18:15 Sunny 66 19 32 0 28 28 W 5 7 29.97 1015 10 16 0.00 0.00
6:35 pm 18:35 Sunny 64 18 30 -1 28 28 Calm 29.94 1014 10 16 0.00 0.00
6:55 pm 18:55 Clear 64 18 30 -1 28 28 Calm 29.97 1015 10 16 0.00 0.00
7:15 pm 19:15 Clear 59 15 30 -1 34 34 W 3 6 30.00 1016 10 16 0.00 0.00
7:35 pm 19:35 Clear 61 16 30 -1 31 31 Calm 29.97 1015 10 16 0.00 0.00
7:55 pm 19:55 Clear 57 14 32 0 39 39 Calm 30.00 1016 10 16 0.00 0.00
8:15 pm 20:15 Clear 54 12 32 0 44 44 Calm 30.03 1017 10 16 0.00 0.00
8:35 pm 20:35 Clear 54 12 32 0 44 44 Calm 30.03 1017 10 16 0.00 0.00
8:55 pm 20:55 Clear 55 13 32 0 41 41 Calm 30.00 1016 10 16 0.00 0.00
9:15 pm 21:15 Clear 55 13 32 0 41 41 WSW 5 7 30.00 1016 10 16 0.00 0.00
9:35 pm 21:35 Clear 52 11 30 -1 44 44 WSW 3 6 30.03 1017 10 16 0.00 0.00
9:55 pm 21:55 Clear 48 9 34 1 58 58 WSW 3 6 30.03 1017 10 16 0.00 0.00
10:15 pm 22:15 Clear 48 9 34 1 58 58 Calm 30.03 1017 10 16 0.00 0.00
10:35 pm 22:35 Clear 46 8 34 1 62 62 Calm 30.09 1019 10 16 0.00 0.00
10:55 pm 22:55 Clear 46 8 30 -1 53 53 Calm 30.09 1019 10 16 0.00 0.00
11:15 pm 23:15 Clear 46 8 30 -1 53 53 Calm 30.06 1018 10 16 0.00 0.00
11:35 pm 23:35 Clear 45 7 30 -1 57 57 Calm 30.06 1018 10 16 0.00 0.00
11:55 pm 23:55 Clear 45 7 30 -1 57 57 Calm 30.06 1018 10 16 0.00 0.00

Powered by AerisWeather